Flight Track Log - Related Links

Times and Time Zones

All times are in EST time to prevent confusion due to time zone crossing. See the AAY855 flight status page for this flight to view local times or setup timezone preferences in your user account.

Time Position Orientation Groundspeed Altitude Reporting Facility
EST Latitude Longitude Course Direction KTS MPH feet Rate Location/Type
Sat 07:02:08 PM 41.5548 -86.0131 115° Southeast 362 417 11,600  Level FlightAware ADS-B
Sat 07:02:46 PM 41.5272 -85.9326 114° Southeast 392 451 12,700 2,103 Climbing FlightAware ADS-B
Sat 07:05:02 PM 41.3962 -85.6412 141° Southeast 412 474 17,700 1,803 Climbing FlightAware ADS-B
Sat 07:10:42 PM 40.7926 -85.3889 175° South 431 496 27,000 1,557 Climbing FlightAware ADS-B
Sat 07:11:35 PM 40.7092 -85.3797 175° South 425 489 27,900 1,148 Climbing Indianapolis Center
Sat 07:12:37 PM 40.5878 -85.3653 175° South 432 497 29,200 1,268 Climbing Indianapolis Center
Sat 07:13:38 PM 40.4411 -85.3494 175° South 437 503 30,500 1,377 Climbing Indianapolis Center
Sat 07:14:39 PM 40.3175 -85.3353 175° South 441 507 32,000 1,180 Climbing Indianapolis Center
Sat 07:15:40 PM 40.1953 -85.3219 175° South 441 507 32,900 621 Climbing Indianapolis Center
Sat 07:19:29 PM 39.7195 -85.2693 175° South 448 516 35,000 240 Climbing FlightAware ADS-B (KCVG)
Sat 07:24:24 PM 39.1275 -85.2048 175° South 443 510 35,000  Level FlightAware ADS-B (KCVG)
Sat 07:25:15 PM 39.0062 -85.1918 175° South 441 507 35,000  Level FlightAware ADS-B (KCVG)
Sat 07:25:53 PM 38.9346 -85.1841 175° South 441 507 35,000  Level FlightAware ADS-B (KCVG)
Sat 07:26:33 PM 38.8478 -85.1748 175° South 441 507 35,000  Level FlightAware ADS-B (KCVG)
Sat 07:27:13 PM 38.8093 -85.1704 175° South 441 507 35,000  Level FlightAware ADS-B (KCVG)
Sat 07:27:43 PM 38.7168 -85.1606 175° South 440 506 35,000  Level FlightAware ADS-B (KCVG)
Sat 07:28:16 PM 38.6394 -85.1522 175° South 438 504 35,000  Level FlightAware ADS-B (KCVG)
Sat 07:28:53 PM 38.5674 -85.1452 176° South 437 503 35,000  Level FlightAware ADS-B (KIXA)
Sat 07:29:37 PM 38.4833 -85.1362 175° South 437 503 35,000  Level FlightAware ADS-B (KIXA)
Sat 07:30:14 PM 38.4003 -85.1271 175° South 438 504 35,000  Level FlightAware ADS-B (KIXA)
Sat 07:30:45 PM 38.3404 -85.1208 175° South 438 504 35,000  Level FlightAware ADS-B (KIXA)
Sat 07:31:16 PM 38.2794 -85.1145 175° South 439 505 35,000  Level FlightAware ADS-B (KIXA)
Sat 07:31:46 PM 38.2153 -85.1076 175° South 441 507 35,000  Level FlightAware ADS-B (KCVG)
Sat 07:32:19 PM 38.1522 -85.1009 175° South 441 507 35,000  Level FlightAware ADS-B (KCVG)
Sat 07:33:28 PM 38.0099 -85.0858 175° South 435 501 35,000  Level FlightAware ADS-B
Sat 07:34:04 PM 37.9372 -85.0783 175° South 433 498 35,000  Level FlightAware ADS-B (KIXA)
Sat 07:34:45 PM 37.8545 -85.0698 176° South 431 496 35,000  Level FlightAware ADS-B (KIXA)
Sat 07:35:25 PM 37.7742 -85.0614 175° South 431 496 35,000  Level FlightAware ADS-B
Sat 07:36:04 PM 37.6971 -85.0534 175° South 430 495 35,000  Level FlightAware ADS-B (KCVG)
Sat 07:36:37 PM 37.6303 -85.0465 175° South 430 495 35,000  Level FlightAware ADS-B (KIXA)
Sat 07:37:09 PM 37.5696 -85.0401 176° South 430 495 35,000  Level FlightAware ADS-B (KIXA)
Sat 07:37:54 PM 37.4786 -85.0307 175° South 429 494 35,000  Level FlightAware ADS-B (KIXA)
Sat 07:38:26 PM 37.4165 -85.0243 175° South 428 493 35,000  Level FlightAware ADS-B (KIXA)
Sat 07:38:56 PM 37.3551 -85.0180 175° South 425 489 35,000  Level FlightAware ADS-B (KIXA)
Sat 07:39:26 PM 37.2962 -85.0120 175° South 423 487 35,000  Level FlightAware ADS-B
Sat 07:40:26 PM 37.1801 -84.9999 175° South 421 484 35,000  Level FlightAware ADS-B (KIXA)
Sat 07:41:26 PM 37.0627 -84.9879 176° South 421 484 35,000  Level FlightAware ADS-B (KIXA)
Sat 07:42:27 PM 36.9487 -84.9765 175° South 424 488 35,000  Level FlightAware ADS-B
Sat 07:43:26 PM 36.8281 -84.9641 175° South 425 489 35,000  Level FlightAware ADS-B
Sat 07:44:37 PM 36.6889 -84.9503 175° South 427 491 35,000  Level FlightAware ADS-B
Sat 07:45:51 PM 36.5420 -84.9351 176° South 429 494 35,000  Level FlightAware ADS-B
Sat 07:47:05 PM 36.3939 -84.9202 175° South 431 496 35,000  Level FlightAware ADS-B
Sat 07:48:06 PM 36.2729 -84.9080 175° South 431 496 35,000  Level FlightAware ADS-B
Sat 07:52:46 PM 35.7190 -84.8531 175° South 424 488 35,000  Level FlightAware ADS-B (KMDQ)
Sat 07:55:47 PM 35.3717 -84.8192 176° South 428 493 35,000  Level FlightAware ADS-B (KMDQ)
Sat 07:56:44 PM 35.3031 -84.8126 176° South 429 494 35,000  Level FlightAware ADS-B (KMDQ)
Sat 07:57:58 PM 35.1001 -84.7928 175° South 422 486 35,000  Level FlightAware ADS-B (KDZJ)
Sat 07:58:38 PM 35.0213 -84.7850 175° South 419 482 35,000  Level FlightAware ADS-B (KDZJ)
Sat 07:59:19 PM 34.9415 -84.7773 175° South 417 480 35,000  Level FlightAware ADS-B (KDZJ)
Sat 08:00:00 PM 34.8616 -84.7695 176° South 423 487 35,000  Level FlightAware ADS-B (KDZJ)
Sat 08:00:40 PM 34.7826 -84.7620 176° South 423 487 35,000  Level FlightAware ADS-B (KDZJ)
Sat 08:01:19 PM 34.7055 -84.7545 176° South 421 484 35,000  Level FlightAware ADS-B (KDZJ)
Sat 08:02:00 PM 34.6264 -84.7470 176° South 419 482 35,000  Level FlightAware ADS-B (KDZJ)
Sat 08:02:40 PM 34.5499 -84.7397 176° South 417 480 35,000  Level FlightAware ADS-B (KDZJ)
Sat 08:03:18 PM 34.4757 -84.7325 175° South 407 468 35,000  Level FlightAware ADS-B (KDZJ)
Sat 08:04:00 PM 34.3963 -84.7247 175° South 407 468 35,000  Level FlightAware ADS-B (KDZJ)
Sat 08:04:39 PM 34.3207 -84.7175 176° South 407 468 35,000  Level FlightAware ADS-B (KDZJ)
Sat 08:05:20 PM 34.2421 -84.7101 176° South 407 468 35,000  Level FlightAware ADS-B (KDZJ)
Sat 08:05:59 PM 34.1665 -84.7030 176° South 417 480 35,000  Level FlightAware ADS-B (KDZJ)
Sat 08:06:40 PM 34.0886 -84.6954 175° South 419 482 35,000  Level FlightAware ADS-B (KDZJ)
Sat 08:07:19 PM 34.0117 -84.6880 176° South 420 483 35,000  Level FlightAware ADS-B (KDZJ)
Sat 08:08:00 PM 33.9323 -84.6807 176° South 421 484 35,000  Level FlightAware ADS-B (KDZJ)
Sat 08:08:58 PM 33.8364 -84.6767 176° South 428 493 35,000  Level Atlanta Center
Sat 08:09:58 PM 33.7217 -84.6658 176° South 422 486 35,000  Level Atlanta Center
Sat 08:10:58 PM 33.6050 -84.6525 175° South 422 486 35,000  Level Atlanta Center
Sat 08:11:58 PM 33.4900 -84.6442 177° South 422 486 35,000  Level Atlanta Center
Sat 08:12:58 PM 33.3733 -84.6333 176° South 422 486 35,000  Level Atlanta Center
Sat 08:13:58 PM 33.2606 -84.6225 175° South 422 486 35,000  Level Atlanta Center
Sat 08:14:58 PM 33.1439 -84.6119 176° South 422 486 35,000  Level Atlanta Center
Sat 08:15:58 PM 33.0311 -84.6014 176° South 422 486 35,000  Level Atlanta Center
Sat 08:16:58 PM 32.9058 -84.5931 177° South 422 486 35,000  Level Atlanta Center
Sat 08:17:58 PM 32.7892 -84.5825 176° South 422 486 35,000  Level Atlanta Center
Sat 08:18:58 PM 32.6847 -84.5669 173° South 422 486 35,000  Level Atlanta Center
Sat 08:19:58 PM 32.5678 -84.5564 176° South 422 486 35,000  Level Atlanta Center
Sat 08:20:58 PM 32.4531 -84.5458 176° South 422 486 35,000  Level Atlanta Center
Sat 08:21:58 PM 32.3364 -84.5353 176° South 422 486 35,000  Level Atlanta Center
Sat 08:22:58 PM 32.2217 -84.5225 175° South 422 486 35,000  Level Atlanta Center
Sat 08:23:58 PM 32.1047 -84.5144 177° South 422 486 35,000 15 Level Atlanta Center
Sat 08:29:35 PM 31.4322 -84.4287 160° South 456 525 35,100  Climbing FlightAware ADS-B (KONZ)
Sat 08:30:17 PM 31.3501 -84.3934 160° South 453 521 35,000 -39 Descending FlightAware ADS-B (KONZ)
Sat 08:32:08 PM 31.3123 -84.3773 160° South 453 521 35,000  Level FlightAware ADS-B (KONZ)
Sat 08:33:16 PM 31.0323 -84.2586 160° South 452 520 35,000  Level FlightAware ADS-B (KONZ)
Sat 08:34:17 PM 30.8767 -84.1929 160° South 450 518 35,000  Level FlightAware ADS-B (KONZ)
Sat 08:34:50 PM 30.8124 -84.1659 160° South 449 517 35,000  Level FlightAware ADS-B
Sat 08:35:26 PM 30.7427 -84.1369 160° South 448 516 35,000  Level FlightAware ADS-B
Sat 08:35:56 PM 30.6876 -84.1138 160° South 445 512 35,000  Level FlightAware ADS-B (KONZ)
Sat 08:36:27 PM 30.6280 -84.0888 160° South 444 511 35,000  Level FlightAware ADS-B (KONZ)
Sat 08:37:01 PM 30.5635 -84.0620 160° South 443 510 35,000  Level FlightAware ADS-B
Sat 08:37:31 PM 30.5022 -84.0364 160° South 442 509 35,000  Level FlightAware ADS-B
Sat 08:38:07 PM 30.4413 -84.0111 160° South 441 507 35,000  Level FlightAware ADS-B (KONZ)
Sat 08:38:37 PM 30.3726 -83.9825 160° South 441 507 35,000  Level FlightAware ADS-B (KONZ)
Sat 08:39:07 PM 30.3253 -83.9630 160° South 441 507 35,000  Level FlightAware ADS-B (KONZ)
Sat 08:39:38 PM 30.2552 -83.9339 160° South 441 507 35,000  Level FlightAware ADS-B
Sat 08:40:16 PM 30.1833 -83.9041 160° South 442 509 35,000  Level FlightAware ADS-B (KONZ)
Sat 08:40:55 PM 30.1102 -83.8741 160° South 442 509 35,000  Level FlightAware ADS-B (KONZ)
Sat 08:41:54 PM 29.9958 -83.8278 160° South 443 510 35,000 -1,210 Level Jacksonville Center
Sat 08:42:54 PM 29.8792 -83.7814 161° South 443 510 32,600 -2,529 Descending Jacksonville Center
Sat 08:43:55 PM 29.7586 -83.7322 161° South 448 516 29,900 -2,300 Descending Jacksonville Center
Sat 08:44:54 PM 29.6439 -83.6836 160° South 448 516 28,000 -2,017 Descending Jacksonville Center
Sat 08:45:54 PM 29.5211 -83.6347 161° South 453 521 25,900 -1,550 Descending Jacksonville Center
Sat 08:46:54 PM 29.3983 -83.5814 159° South 465 535 24,900 -446 Descending Jacksonville Center
Sat 08:47:55 PM 29.2775 -83.5331 161° South 465 535 25,000 -700 Climbing Jacksonville Center
Sat 08:48:54 PM 29.1586 -83.4728 156° South 465 535 23,500 -2,150 Descending Jacksonville Center
Sat 08:49:55 PM 29.0483 -83.4008 150° Southeast 465 535 20,700 -2,200 Descending Jacksonville Center
Sat 08:50:54 PM 28.9422 -83.3317 150° Southeast 452 520 19,100 -1,462 Descending Jacksonville Center
Sat 08:51:54 PM 28.8403 -83.2694 152° Southeast 436 502 17,800 -1,436 Descending Jacksonville Center
Sat 08:54:02 PM 28.6333 -83.1333 150° Southeast 411 473 14,600 -1,532 Descending Tampa TRACON
Sat 08:55:02 PM 28.5333 -83.0667 150° Southeast 406 467 13,000 -1,667 Descending Tampa TRACON
Sat 08:56:08 PM 28.4167 -83.0000 153° Southeast 394 453 11,100 -1,429 Descending Tampa TRACON
Sat 08:57:08 PM 28.3167 -82.9500 156° South 375 432 10,000 -550 Descending Tampa TRACON
Sat 08:58:08 PM 28.2333 -82.9167 161° South 342 394 10,000 -950 Level Tampa TRACON
Sat 08:59:08 PM 28.1500 -82.9000 170° South 292 336 8,100 -1,895 Descending Tampa TRACON
Sat 09:00:02 PM 28.0833 -82.8667 156° South 283 326 6,400 -1,800 Descending Tampa TRACON
Sat 09:01:08 PM 28.0000 -82.8500 170° South 272 313 4,500 -1,450 Descending Tampa TRACON
Sat 09:02:02 PM 27.9333 -82.8167 156° South 247 284 3,500 -895 Descending Tampa TRACON
Sat 09:03:02 PM 27.8833 -82.8000 164° South 209 241 2,800 -800 Descending Tampa TRACON
Sat 09:04:02 PM 27.8333 -82.7667 149° Southeast 182 209 1,900 -700 Descending Tampa TRACON
Sat 09:05:02 PM 27.8333 -82.7167 90° East 172 198 1,400 -350 Descending Tampa TRACON
Sat 09:06:02 PM 27.8500 -82.6833 61° Northeast 134 154 1,200 -450 Descending Tampa TRACON
Sat 09:07:02 PM 27.8833 -82.6833 360° North 129 148 500 -700 Descending Tampa TRACON

Login

Don't have an account? Register now (free) for customized features, flight alerts, and more!